Time,TemperatureF,DewpointF,PressureIn,WindDirection,WindDirectionDegrees,WindSpeedMPH,WindSpeedGustMPH,Humidity,HourlyPrecipIn,Conditions,Clouds,dailyrainin,SoftwareType,DateUTC
2013-10-19 00:02:00,43.0,41.7,30.03,NNW,344,2.0,2.0,95,0.10,,,0.00,Wunderground v.1.15,2013-10-19 05:02:00,
2013-10-19 00:07:00,43.1,41.8,30.03,NNW,346,1.0,2.0,95,0.10,,,0.01,Wunderground v.1.15,2013-10-19 05:07:00,
2013-10-19 00:12:00,43.0,41.7,30.03,NNW,338,1.0,3.0,95,0.29,,,0.03,Wunderground v.1.15,2013-10-19 05:12:00,
2013-10-19 00:17:00,43.0,41.7,30.02,NNW,343,1.0,3.0,95,0.21,,,0.05,Wunderground v.1.15,2013-10-19 05:17:00,
2013-10-19 00:23:00,42.9,41.6,30.02,NNW,338,1.0,4.0,95,0.12,,,0.06,Wunderground v.1.15,2013-10-19 05:23:00,
2013-10-19 00:28:00,42.9,41.6,30.02,NW,319,2.0,4.0,95,0.10,,,0.06,Wunderground v.1.15,2013-10-19 05:28:00,
2013-10-19 00:33:00,42.9,41.6,30.02,North,9,2.0,2.0,95,0.10,,,0.07,Wunderground v.1.15,2013-10-19 05:33:00,
2013-10-19 00:38:00,42.8,41.5,30.03,NW,307,3.0,6.0,95,0.06,,,0.07,Wunderground v.1.15,2013-10-19 05:38:00,
2013-10-19 00:44:00,42.8,41.5,30.03,NW,310,2.0,3.0,95,0.04,,,0.07,Wunderground v.1.15,2013-10-19 05:44:00,
2013-10-19 00:49:00,42.7,41.4,30.03,NNW,343,2.0,3.0,95,0.00,,,0.07,Wunderground v.1.15,2013-10-19 05:49:00,
2013-10-19 00:54:00,42.6,41.5,30.03,NW,308,2.0,4.0,96,0.00,,,0.07,Wunderground v.1.15,2013-10-19 05:54:00,
2013-10-19 01:00:00,42.4,41.3,30.03,NNW,340,3.0,3.0,96,0.00,,,0.08,Wunderground v.1.15,2013-10-19 06:00:00,
2013-10-19 01:05:00,41.9,40.6,30.03,NNE,15,4.0,8.0,95,0.00,,,0.08,Wunderground v.1.15,2013-10-19 06:05:00,
2013-10-19 01:10:00,41.4,40.1,30.04,NW,320,5.0,5.0,95,0.06,,,0.09,Wunderground v.1.15,2013-10-19 06:10:00,
2013-10-19 01:16:00,41.0,39.7,30.04,NW,316,5.0,10.0,95,0.06,,,0.09,Wunderground v.1.15,2013-10-19 06:16:00,
2013-10-19 01:21:00,40.8,39.5,30.04,NW,313,5.0,5.0,95,0.04,,,0.09,Wunderground v.1.15,2013-10-19 06:21:00,
2013-10-19 01:26:00,40.7,39.4,30.04,WNW,300,4.0,5.0,95,0.00,,,0.09,Wunderground v.1.15,2013-10-19 06:26:00,
2013-10-19 01:31:00,40.7,39.4,30.04,NNW,346,3.0,4.0,95,0.00,,,0.10,Wunderground v.1.15,2013-10-19 06:31:00,
2013-10-19 01:37:00,40.6,39.5,30.05,NNW,338,3.0,7.0,96,0.09,,,0.11,Wunderground v.1.15,2013-10-19 06:37:00,
2013-10-19 01:42:00,40.5,39.2,30.04,NNW,330,3.0,5.0,95,0.09,,,0.11,Wunderground v.1.15,2013-10-19 06:42:00,
2013-10-19 01:47:00,40.3,39.0,30.04,North,5,3.0,5.0,95,0.06,,,0.11,Wunderground v.1.15,2013-10-19 06:47:00,
2013-10-19 01:53:00,40.1,39.1,30.04,NNW,344,2.0,3.0,96,0.04,,,0.11,Wunderground v.1.15,2013-10-19 06:53:00,
2013-10-19 01:58:00,40.2,39.2,30.04,North,360,2.0,7.0,96,0.00,,,0.11,Wunderground v.1.15,2013-10-19 06:58:00,
2013-10-19 02:03:00,40.0,39.0,30.04,NNW,333,2.0,5.0,96,0.00,,,0.11,Wunderground v.1.15,2013-10-19 07:03:00,
2013-10-19 02:09:00,39.9,38.9,30.04,NW,323,2.0,5.0,96,0.00,,,0.11,Wunderground v.1.15,2013-10-19 07:09:00,
2013-10-19 02:14:00,39.7,38.4,30.04,NNW,338,2.0,4.0,95,0.00,,,0.11,Wunderground v.1.15,2013-10-19 07:14:00,
2013-10-19 02:20:00,39.7,38.7,30.04,NW,312,2.0,3.0,96,0.00,,,0.11,Wunderground v.1.15,2013-10-19 07:20:00,
2013-10-19 02:25:00,39.7,38.7,30.04,NW,313,1.0,3.0,96,0.00,,,0.11,Wunderground v.1.15,2013-10-19 07:25:00,
2013-10-19 02:31:00,39.7,38.7,30.05,NNW,327,1.0,1.0,96,0.00,,,0.11,Wunderground v.1.15,2013-10-19 07:31:00,
2013-10-19 02:36:00,39.7,38.7,30.04,NNW,338,1.0,3.0,96,0.00,,,0.11,Wunderground v.1.15,2013-10-19 07:36:00,
2013-10-19 02:41:00,39.6,38.6,30.04,NNW,346,1.0,1.0,96,0.00,,,0.11,Wunderground v.1.15,2013-10-19 07:41:00,
2013-10-19 02:46:00,39.6,38.6,30.04,NNW,345,1.0,2.0,96,0.00,,,0.11,Wunderground v.1.15,2013-10-19 07:46:00,
2013-10-19 02:52:00,39.7,38.7,30.05,NNW,330,2.0,4.0,96,0.00,,,0.11,Wunderground v.1.15,2013-10-19 07:52:00,
2013-10-19 02:57:00,39.7,38.7,30.05,NW,311,2.0,4.0,96,0.00,,,0.11,Wunderground v.1.15,2013-10-19 07:57:00,
2013-10-19 03:02:00,39.6,38.6,30.05,NW,311,3.0,4.0,96,0.00,,,0.11,Wunderground v.1.15,2013-10-19 08:02:00,
2013-10-19 03:08:00,39.6,38.6,30.05,WNW,302,3.0,4.0,96,0.00,,,0.11,Wunderground v.1.15,2013-10-19 08:08:00,
2013-10-19 03:13:00,39.5,38.5,30.04,WNW,298,3.0,4.0,96,0.00,,,0.11,Wunderground v.1.15,2013-10-19 08:13:00,
2013-10-19 03:18:00,39.5,38.5,30.04,NW,317,3.0,4.0,96,0.00,,,0.11,Wunderground v.1.15,2013-10-19 08:18:00,
2013-10-19 03:23:00,39.5,38.5,30.04,NNW,340,2.0,4.0,96,0.00,,,0.11,Wunderground v.1.15,2013-10-19 08:23:00,
2013-10-19 03:29:00,39.5,38.5,30.04,NW,309,3.0,10.0,96,0.00,,,0.11,Wunderground v.1.15,2013-10-19 08:29:00,
2013-10-19 03:34:00,39.4,38.4,30.04,WNW,295,3.0,4.0,96,0.00,,,0.11,Wunderground v.1.15,2013-10-19 08:34:00,
2013-10-19 03:39:00,39.4,38.4,30.04,NW,319,3.0,4.0,96,0.00,,,0.11,Wunderground v.1.15,2013-10-19 08:39:00,
2013-10-19 03:45:00,39.4,38.4,30.04,WNW,300,2.0,5.0,96,0.00,,,0.11,Wunderground v.1.15,2013-10-19 08:45:00,
2013-10-19 03:50:00,39.3,38.3,30.04,West,279,3.0,3.0,96,0.00,,,0.11,Wunderground v.1.15,2013-10-19 08:50:00,
2013-10-19 03:55:00,39.1,38.1,30.04,WNW,284,4.0,7.0,96,0.00,,,0.11,Wunderground v.1.15,2013-10-19 08:55:00,
2013-10-19 04:00:00,39.1,38.1,30.04,WNW,284,3.0,3.0,96,0.00,,,0.11,Wunderground v.1.15,2013-10-19 09:00:00,
2013-10-19 04:05:00,38.9,37.9,30.04,NW,311,3.0,4.0,96,0.00,,,0.11,Wunderground v.1.15,2013-10-19 09:05:00,
2013-10-19 04:11:00,38.9,37.9,30.04,NNW,333,3.0,5.0,96,0.00,,,0.11,Wunderground v.1.15,2013-10-19 09:11:00,
2013-10-19 04:16:00,39.0,38.0,30.04,NNW,338,3.0,5.0,96,0.00,,,0.11,Wunderground v.1.15,2013-10-19 09:16:00,
2013-10-19 04:21:00,38.9,37.9,30.04,NW,318,2.0,2.0,96,0.00,,,0.11,Wunderground v.1.15,2013-10-19 09:21:00,
2013-10-19 04:27:00,39.1,38.1,30.05,NW,325,1.0,6.0,96,0.00,,,0.11,Wunderground v.1.15,2013-10-19 09:27:00,
2013-10-19 04:32:00,39.0,38.0,30.05,WNW,284,2.0,5.0,96,0.00,,,0.11,Wunderground v.1.15,2013-10-19 09:32:00,
2013-10-19 04:37:00,38.6,37.6,30.05,North,10,4.0,5.0,96,0.00,,,0.11,Wunderground v.1.15,2013-10-19 09:37:00,
2013-10-19 04:43:00,38.3,37.3,30.05,NNW,338,4.0,5.0,96,0.00,,,0.11,Wunderground v.1.15,2013-10-19 09:43:00,
2013-10-19 04:48:00,38.3,37.3,30.05,NW,321,3.0,11.0,96,0.00,,,0.11,Wunderground v.1.15,2013-10-19 09:48:00,
2013-10-19 04:54:00,38.1,37.1,30.05,NNE,13,3.0,3.0,96,0.00,,,0.11,Wunderground v.1.15,2013-10-19 09:54:00,
2013-10-19 05:00:00,38.1,37.1,30.06,WNW,302,3.0,3.0,96,0.00,,,0.11,Wunderground v.1.15,2013-10-19 10:00:00,
2013-10-19 05:05:00,38.2,37.2,30.06,NNW,346,3.0,5.0,96,0.00,,,0.11,Wunderground v.1.15,2013-10-19 10:05:00,
2013-10-19 05:10:00,38.1,37.1,30.05,NW,309,3.0,3.0,96,0.00,,,0.11,Wunderground v.1.15,2013-10-19 10:10:00,
2013-10-19 05:16:00,38.1,37.1,30.06,NW,307,3.0,4.0,96,0.00,,,0.11,Wunderground v.1.15,2013-10-19 10:16:00,
2013-10-19 05:21:00,38.1,37.1,30.06,WSW,248,2.0,3.0,96,0.00,,,0.11,Wunderground v.1.15,2013-10-19 10:21:00,
2013-10-19 05:26:00,38.1,37.1,30.06,NW,315,2.0,5.0,96,0.00,,,0.11,Wunderground v.1.15,2013-10-19 10:26:00,
2013-10-19 05:31:00,38.1,37.1,30.06,NNW,338,2.0,6.0,96,0.00,,,0.11,Wunderground v.1.15,2013-10-19 10:31:00,
2013-10-19 05:37:00,38.0,37.0,30.06,NE,42,2.0,6.0,96,0.00,,,0.11,Wunderground v.1.15,2013-10-19 10:37:00,
2013-10-19 05:42:00,37.7,36.7,30.06,NNW,337,2.0,3.0,96,0.00,,,0.11,Wunderground v.1.15,2013-10-19 10:42:00,
2013-10-19 05:47:00,37.5,36.5,30.06,NW,319,2.0,4.0,96,0.00,,,0.11,Wunderground v.1.15,2013-10-19 10:47:00,
2013-10-19 05:53:00,37.3,36.3,30.06,WNW,302,2.0,4.0,96,0.00,,,0.11,Wunderground v.1.15,2013-10-19 10:53:00,
2013-10-19 05:58:00,37.2,36.2,30.06,NW,309,2.0,4.0,96,0.00,,,0.11,Wunderground v.1.15,2013-10-19 10:58:00,
2013-10-19 06:03:00,37.1,36.1,30.06,NW,309,1.0,3.0,96,0.00,,,0.11,Wunderground v.1.15,2013-10-19 11:03:00,
2013-10-19 06:08:00,37.1,36.1,30.06,NW,309,0.0,3.0,96,0.00,,,0.11,Wunderground v.1.15,2013-10-19 11:08:00,
2013-10-19 06:14:00,37.2,36.2,30.07,NW,309,0.0,0.0,96,0.00,,,0.11,Wunderground v.1.15,2013-10-19 11:14:00,
2013-10-19 06:19:00,37.2,36.2,30.07,WNW,286,0.0,2.0,96,0.00,,,0.11,Wunderground v.1.15,2013-10-19 11:19:00,
2013-10-19 06:24:00,37.1,36.1,30.07,WNW,286,1.0,1.0,96,0.00,,,0.11,Wunderground v.1.15,2013-10-19 11:24:00,
2013-10-19 06:29:00,37.2,36.2,30.07,WNW,286,0.0,1.0,96,0.00,,,0.11,Wunderground v.1.15,2013-10-19 11:29:00,
2013-10-19 06:35:00,37.3,36.3,30.07,WNW,286,0.0,0.0,96,0.00,,,0.11,Wunderground v.1.15,2013-10-19 11:35:00,
2013-10-19 06:40:00,37.3,36.3,30.07,WNW,286,0.0,0.0,96,0.00,,,0.11,Wunderground v.1.15,2013-10-19 11:40:00,
2013-10-19 06:45:00,37.3,36.3,30.07,WNW,286,0.0,0.0,96,0.00,,,0.11,Wunderground v.1.15,2013-10-19 11:45:00,
2013-10-19 06:50:00,37.3,36.3,30.07,WNW,286,0.0,0.0,96,0.00,,,0.11,Wunderground v.1.15,2013-10-19 11:50:00,
2013-10-19 06:56:00,37.3,36.3,30.07,WNW,286,0.0,1.0,96,0.00,,,0.11,Wunderground v.1.15,2013-10-19 11:56:00,
2013-10-19 07:01:00,37.2,36.2,30.07,WNW,286,0.0,0.0,96,0.00,,,0.11,Wunderground v.1.15,2013-10-19 12:01:00,
2013-10-19 07:06:00,37.1,36.1,30.07,WNW,286,0.0,3.0,96,0.00,,,0.11,Wunderground v.1.15,2013-10-19 12:06:00,
2013-10-19 07:12:00,36.9,35.9,30.07,WNW,286,0.0,0.0,96,0.00,,,0.11,Wunderground v.1.15,2013-10-19 12:12:00,
2013-10-19 07:17:00,36.7,35.7,30.08,WNW,286,0.0,2.0,96,0.00,,,0.11,Wunderground v.1.15,2013-10-19 12:17:00,
2013-10-19 07:22:00,36.3,35.3,30.08,WNW,286,1.0,2.0,96,0.00,,,0.11,Wunderground v.1.15,2013-10-19 12:22:00,
2013-10-19 07:28:00,36.0,35.0,30.08,WNW,291,1.0,2.0,96,0.00,,,0.11,Wunderground v.1.15,2013-10-19 12:28:00,
2013-10-19 07:34:00,35.7,34.4,30.08,WNW,294,1.0,3.0,95,0.00,,,0.11,Wunderground v.1.15,2013-10-19 12:34:00,
2013-10-19 07:40:00,35.5,34.5,30.08,WNW,294,1.0,1.0,96,0.00,,,0.11,Wunderground v.1.15,2013-10-19 12:40:00,
2013-10-19 07:45:00,35.4,34.4,30.08,WNW,294,0.0,1.0,96,0.00,,,0.11,Wunderground v.1.15,2013-10-19 12:45:00,
2013-10-19 07:51:00,35.3,34.3,30.08,WNW,294,1.0,1.0,96,0.00,,,0.11,Wunderground v.1.15,2013-10-19 12:51:00,
2013-10-19 07:56:00,35.3,34.3,30.08,WNW,294,1.0,1.0,96,0.00,,,0.11,Wunderground v.1.15,2013-10-19 12:56:00,
2013-10-19 08:01:00,35.3,34.3,30.08,WNW,294,0.0,1.0,96,0.00,,,0.11,Wunderground v.1.15,2013-10-19 13:01:00,
2013-10-19 08:06:00,35.2,34.2,30.08,WNW,283,2.0,5.0,96,0.00,,,0.11,Wunderground v.1.15,2013-10-19 13:06:00,
2013-10-19 08:12:00,35.2,34.2,30.08,West,271,3.0,4.0,96,0.00,,,0.11,Wunderground v.1.15,2013-10-19 13:12:00,
2013-10-19 08:17:00,35.2,34.2,30.08,West,270,3.0,4.0,96,0.00,,,0.11,Wunderground v.1.15,2013-10-19 13:17:00,
2013-10-19 08:22:00,35.3,34.3,30.08,West,269,3.0,5.0,96,0.00,,,0.11,Wunderground v.1.15,2013-10-19 13:22:00,
2013-10-19 08:28:00,35.3,34.3,30.08,West,263,3.0,5.0,96,0.00,,,0.11,Wunderground v.1.15,2013-10-19 13:28:00,
2013-10-19 08:33:00,35.3,34.3,30.08,West,262,3.0,3.0,96,0.00,,,0.11,Wunderground v.1.15,2013-10-19 13:33:00,
2013-10-19 08:38:00,35.5,34.5,30.08,WSW,255,2.0,5.0,96,0.00,,,0.11,Wunderground v.1.15,2013-10-19 13:38:00,
2013-10-19 08:44:00,35.7,34.7,30.08,WSW,255,3.0,5.0,96,0.00,,,0.11,Wunderground v.1.15,2013-10-19 13:44:00,
2013-10-19 08:50:00,36.0,35.0,30.09,WSW,254,3.0,3.0,96,0.00,,,0.11,Wunderground v.1.15,2013-10-19 13:50:00,
2013-10-19 08:56:00,36.1,35.1,30.09,WSW,239,3.0,5.0,96,0.00,,,0.11,Wunderground v.1.15,2013-10-19 13:56:00,
2013-10-19 09:02:00,36.2,35.2,30.09,West,267,4.0,5.0,96,0.00,,,0.11,Wunderground v.1.15,2013-10-19 14:02:00,
2013-10-19 09:07:00,36.4,35.4,30.09,WSW,257,3.0,6.0,96,0.00,,,0.11,Wunderground v.1.15,2013-10-19 14:07:00,
2013-10-19 09:12:00,36.3,35.3,30.09,WSW,246,3.0,6.0,96,0.00,,,0.11,Wunderground v.1.15,2013-10-19 14:12:00,
2013-10-19 09:17:00,36.6,35.6,30.10,WSW,249,3.0,6.0,96,0.00,,,0.11,Wunderground v.1.15,2013-10-19 14:17:00,
2013-10-19 09:23:00,36.9,35.9,30.10,WSW,246,3.0,5.0,96,0.00,,,0.11,Wunderground v.1.15,2013-10-19 14:23:00,
2013-10-19 09:28:00,37.1,36.1,30.10,WSW,246,2.0,5.0,96,0.00,,,0.11,Wunderground v.1.15,2013-10-19 14:28:00,
2013-10-19 09:33:00,36.9,35.9,30.10,West,272,3.0,7.0,96,0.00,,,0.11,Wunderground v.1.15,2013-10-19 14:33:00,
2013-10-19 09:38:00,36.8,35.8,30.10,West,271,3.0,7.0,96,0.00,,,0.11,Wunderground v.1.15,2013-10-19 14:38:00,
2013-10-19 09:44:00,36.9,35.9,30.10,West,271,2.0,3.0,96,0.00,,,0.11,Wunderground v.1.15,2013-10-19 14:44:00,
2013-10-19 09:49:00,37.2,36.2,30.10,West,264,2.0,4.0,96,0.00,,,0.11,Wunderground v.1.15,2013-10-19 14:49:00,
2013-10-19 09:54:00,37.4,36.4,30.10,West,275,2.0,3.0,96,0.00,,,0.11,Wunderground v.1.15,2013-10-19 14:54:00,
2013-10-19 09:59:00,37.9,36.9,30.11,WNW,282,2.0,3.0,96,0.00,,,0.11,Wunderground v.1.15,2013-10-19 14:59:00,
2013-10-19 10:05:00,38.0,37.0,30.11,West,259,3.0,5.0,96,0.00,,,0.11,Wunderground v.1.15,2013-10-19 15:05:00,
2013-10-19 10:11:00,38.2,37.2,30.11,SW,236,4.0,6.0,96,0.00,,,0.11,Wunderground v.1.15,2013-10-19 15:11:00,
2013-10-19 10:17:00,38.3,37.3,30.11,WSW,247,5.0,6.0,96,0.00,,,0.11,Wunderground v.1.15,2013-10-19 15:17:00,
2013-10-19 10:23:00,39.3,38.0,30.11,SW,234,4.0,5.0,95,0.00,,,0.11,Wunderground v.1.15,2013-10-19 15:23:00,
2013-10-19 10:28:00,39.8,38.5,30.11,West,274,5.0,8.0,95,0.00,,,0.11,Wunderground v.1.15,2013-10-19 15:28:00,
2013-10-19 10:34:00,40.0,38.4,30.11,West,261,6.0,8.0,94,0.00,,,0.11,Wunderground v.1.15,2013-10-19 15:34:00,
2013-10-19 10:40:00,39.7,37.6,30.11,WSW,245,6.0,7.0,92,0.00,,,0.11,Wunderground v.1.15,2013-10-19 15:40:00,
2013-10-19 10:45:00,39.7,37.3,30.11,WSW,253,7.0,10.0,91,0.00,,,0.11,Wunderground v.1.15,2013-10-19 15:45:00,
2013-10-19 10:50:00,40.3,37.6,30.11,West,265,7.0,7.0,90,0.00,,,0.11,Wunderground v.1.15,2013-10-19 15:50:00,
2013-10-19 10:56:00,40.9,37.9,30.11,SW,234,6.0,7.0,89,0.00,,,0.11,Wunderground v.1.15,2013-10-19 15:56:00,
2013-10-19 11:01:00,41.4,38.1,30.11,WSW,242,5.0,8.0,88,0.00,,,0.11,Wunderground v.1.15,2013-10-19 16:01:00,
2013-10-19 11:06:00,41.5,37.6,30.12,WSW,244,6.0,9.0,86,0.00,,,0.11,Wunderground v.1.15,2013-10-19 16:06:00,
2013-10-19 11:12:00,41.8,37.6,30.11,WSW,248,7.0,9.0,85,0.00,,,0.11,Wunderground v.1.15,2013-10-19 16:12:00,
2013-10-19 11:17:00,42.1,37.9,30.11,WSW,250,7.0,9.0,85,0.00,,,0.11,Wunderground v.1.15,2013-10-19 16:17:00,
2013-10-19 11:22:00,42.8,38.3,30.11,SW,219,6.0,6.0,84,0.00,,,0.11,Wunderground v.1.15,2013-10-19 16:22:00,
2013-10-19 11:27:00,43.2,38.4,30.11,WSW,252,5.0,6.0,83,0.00,,,0.11,Wunderground v.1.15,2013-10-19 16:27:00,
2013-10-19 11:33:00,43.7,38.6,30.11,WSW,255,5.0,5.0,82,0.00,,,0.11,Wunderground v.1.15,2013-10-19 16:33:00,
2013-10-19 11:38:00,44.7,39.2,30.11,WSW,250,4.0,5.0,81,0.00,,,0.11,Wunderground v.1.15,2013-10-19 16:38:00,
2013-10-19 11:43:00,45.0,38.6,30.11,WSW,242,4.0,6.0,78,0.00,,,0.11,Wunderground v.1.15,2013-10-19 16:43:00,
2013-10-19 11:49:00,45.0,38.6,30.10,WSW,251,5.0,6.0,78,0.00,,,0.11,Wunderground v.1.15,2013-10-19 16:49:00,
2013-10-19 11:55:00,45.5,39.0,30.10,WSW,246,5.0,7.0,78,0.00,,,0.11,Wunderground v.1.15,2013-10-19 16:55:00,
2013-10-19 12:00:00,45.7,38.6,30.10,WSW,254,5.0,6.0,76,0.00,,,0.11,Wunderground v.1.15,2013-10-19 17:00:00,
2013-10-19 12:05:00,46.4,38.9,30.10,West,261,5.0,6.0,75,0.00,,,0.11,Wunderground v.1.15,2013-10-19 17:05:00,
2013-10-19 12:10:00,47.1,39.6,30.10,West,261,5.0,5.0,75,0.00,,,0.11,Wunderground v.1.15,2013-10-19 17:10:00,
2013-10-19 12:16:00,48.1,39.9,30.10,WSW,242,4.0,7.0,73,0.00,,,0.11,Wunderground v.1.15,2013-10-19 17:16:00,
2013-10-19 12:21:00,48.7,39.7,30.10,WSW,244,4.0,7.0,71,0.00,,,0.11,Wunderground v.1.15,2013-10-19 17:21:00,
2013-10-19 12:26:00,48.7,40.1,30.09,NW,310,4.0,7.0,72,0.00,,,0.11,Wunderground v.1.15,2013-10-19 17:26:00,
2013-10-19 12:32:00,48.7,39.7,30.09,NW,309,5.0,5.0,71,0.00,,,0.11,Wunderground v.1.15,2013-10-19 17:32:00,
2013-10-19 12:37:00,49.4,39.3,30.09,SW,225,4.0,5.0,68,0.00,,,0.11,Wunderground v.1.15,2013-10-19 17:37:00,
2013-10-19 12:43:00,49.3,39.2,30.09,SW,219,5.0,7.0,68,0.00,,,0.11,Wunderground v.1.15,2013-10-19 17:43:00,
2013-10-19 12:49:00,49.6,39.1,30.09,WSW,243,6.0,8.0,67,0.00,,,0.11,Wunderground v.1.15,2013-10-19 17:49:00,
2013-10-19 12:54:00,49.8,39.7,30.09,SW,223,5.0,8.0,68,0.00,,,0.11,Wunderground v.1.15,2013-10-19 17:54:00,
2013-10-19 12:59:00,49.1,39.0,30.08,West,270,6.0,9.0,68,0.00,,,0.11,Wunderground v.1.15,2013-10-19 17:59:00,
2013-10-19 13:05:00,49.7,39.2,30.08,WSW,240,6.0,11.0,67,0.00,,,0.11,Wunderground v.1.15,2013-10-19 18:05:00,
2013-10-19 13:10:00,50.4,39.5,30.08,WSW,239,6.0,6.0,66,0.00,,,0.11,Wunderground v.1.15,2013-10-19 18:10:00,
2013-10-19 13:15:00,50.9,39.5,30.08,West,261,5.0,8.0,65,0.00,,,0.11,Wunderground v.1.15,2013-10-19 18:15:00,
2013-10-19 13:20:00,51.5,39.7,30.08,West,267,5.0,5.0,64,0.00,,,0.11,Wunderground v.1.15,2013-10-19 18:20:00,
2013-10-19 13:26:00,52.1,40.3,30.08,SSW,213,5.0,7.0,64,0.00,,,0.11,Wunderground v.1.15,2013-10-19 18:26:00,
2013-10-19 13:31:00,51.1,39.3,30.07,West,267,4.0,4.0,64,0.00,,,0.11,Wunderground v.1.15,2013-10-19 18:31:00,
2013-10-19 13:36:00,51.3,39.5,30.07,WSW,249,5.0,9.0,64,0.00,,,0.11,Wunderground v.1.15,2013-10-19 18:36:00,
2013-10-19 13:42:00,52.6,40.4,30.07,SW,234,4.0,5.0,63,0.00,,,0.11,Wunderground v.1.15,2013-10-19 18:42:00,
2013-10-19 13:47:00,53.0,40.3,30.07,WSW,239,3.0,5.0,62,0.00,,,0.11,Wunderground v.1.15,2013-10-19 18:47:00,
2013-10-19 13:52:00,53.2,39.7,30.06,SW,236,3.0,8.0,60,0.00,,,0.11,Wunderground v.1.15,2013-10-19 18:52:00,
2013-10-19 13:57:00,53.7,39.3,30.06,West,275,5.0,9.0,58,0.00,,,0.11,Wunderground v.1.15,2013-10-19 18:57:00,
2013-10-19 14:03:00,54.5,40.5,30.06,SW,230,5.0,7.0,59,0.00,,,0.11,Wunderground v.1.15,2013-10-19 19:03:00,
2013-10-19 14:08:00,55.5,40.5,30.06,SW,232,4.0,7.0,57,0.00,,,0.11,Wunderground v.1.15,2013-10-19 19:08:00,
2013-10-19 14:13:00,55.1,39.7,30.06,West,262,5.0,6.0,56,0.00,,,0.11,Wunderground v.1.15,2013-10-19 19:13:00,
2013-10-19 14:18:00,55.6,40.6,30.05,SW,228,4.0,6.0,57,0.00,,,0.11,Wunderground v.1.15,2013-10-19 19:18:00,
2013-10-19 14:24:00,55.7,37.8,30.05,West,274,3.0,9.0,51,0.00,,,0.11,Wunderground v.1.15,2013-10-19 19:24:00,
2013-10-19 14:29:00,54.6,36.8,30.05,WSW,237,5.0,9.0,51,0.00,,,0.11,Wunderground v.1.15,2013-10-19 19:29:00,
2013-10-19 14:34:00,54.9,39.0,30.05,WSW,247,6.0,7.0,55,0.00,,,0.11,Wunderground v.1.15,2013-10-19 19:34:00,
2013-10-19 14:40:00,55.8,40.3,30.05,WSW,244,4.0,5.0,56,0.00,,,0.11,Wunderground v.1.15,2013-10-19 19:40:00,
2013-10-19 14:45:00,55.9,39.5,30.05,West,262,4.0,8.0,54,0.00,,,0.11,Wunderground v.1.15,2013-10-19 19:45:00,
2013-10-19 14:51:00,55.9,39.5,30.05,NNE,24,4.0,7.0,54,0.00,,,0.11,Wunderground v.1.15,2013-10-19 19:51:00,
2013-10-19 14:56:00,56.9,40.9,30.05,WSW,242,4.0,7.0,55,0.00,,,0.11,Wunderground v.1.15,2013-10-19 19:56:00,
2013-10-19 15:01:00,56.8,38.9,30.05,NW,326,3.0,6.0,51,0.00,,,0.11,Wunderground v.1.15,2013-10-19 20:01:00,
2013-10-19 15:07:00,57.1,39.1,30.04,NNW,347,4.0,6.0,51,0.00,,,0.11,Wunderground v.1.15,2013-10-19 20:07:00,
2013-10-19 15:12:00,56.8,38.9,30.04,SW,221,4.0,6.0,51,0.00,,,0.11,Wunderground v.1.15,2013-10-19 20:12:00,
2013-10-19 15:17:00,56.6,40.1,30.05,North,351,4.0,6.0,54,0.00,,,0.11,Wunderground v.1.15,2013-10-19 20:17:00,
2013-10-19 15:23:00,57.1,38.6,30.04,SW,232,4.0,7.0,50,0.00,,,0.11,Wunderground v.1.15,2013-10-19 20:23:00,
2013-10-19 15:28:00,57.0,38.5,30.04,SW,222,4.0,7.0,50,0.00,,,0.11,Wunderground v.1.15,2013-10-19 20:28:00,
2013-10-19 15:33:00,56.9,38.9,30.04,SW,234,3.0,4.0,51,0.00,,,0.11,Wunderground v.1.15,2013-10-19 20:33:00,
2013-10-19 15:38:00,56.2,37.3,30.04,WSW,257,4.0,12.0,49,0.00,,,0.11,Wunderground v.1.15,2013-10-19 20:38:00,
2013-10-19 15:43:00,56.3,37.4,30.04,WNW,295,5.0,5.0,49,0.00,,,0.11,Wunderground v.1.15,2013-10-19 20:43:00,
2013-10-19 15:49:00,57.0,39.5,30.04,NNW,336,3.0,5.0,52,0.00,,,0.11,Wunderground v.1.15,2013-10-19 20:49:00,
2013-10-19 15:54:00,57.9,39.9,30.04,West,271,2.0,5.0,51,0.00,,,0.11,Wunderground v.1.15,2013-10-19 20:54:00,
2013-10-19 15:59:00,58.2,40.1,30.04,WSW,250,2.0,8.0,51,0.00,,,0.11,Wunderground v.1.15,2013-10-19 20:59:00,
2013-10-19 16:05:00,57.5,39.0,30.04,WSW,254,4.0,7.0,50,0.00,,,0.11,Wunderground v.1.15,2013-10-19 21:05:00,
2013-10-19 16:10:00,56.3,36.3,30.04,West,260,5.0,7.0,47,0.00,,,0.11,Wunderground v.1.15,2013-10-19 21:10:00,
2013-10-19 16:15:00,55.9,37.5,30.04,West,275,6.0,11.0,50,0.00,,,0.11,Wunderground v.1.15,2013-10-19 21:15:00,
2013-10-19 16:20:00,56.3,37.9,30.05,WSW,257,5.0,6.0,50,0.00,,,0.11,Wunderground v.1.15,2013-10-19 21:20:00,
2013-10-19 16:26:00,56.4,39.0,30.04,West,277,5.0,8.0,52,0.00,,,0.11,Wunderground v.1.15,2013-10-19 21:26:00,
2013-10-19 16:31:00,56.8,37.8,30.05,WNW,303,5.0,5.0,49,0.00,,,0.11,Wunderground v.1.15,2013-10-19 21:31:00,
2013-10-19 16:36:00,56.4,36.9,30.04,SSW,212,5.0,10.0,48,0.00,,,0.11,Wunderground v.1.15,2013-10-19 21:36:00,
2013-10-19 16:42:00,55.4,37.1,30.04,SW,225,6.0,6.0,50,0.00,,,0.11,Wunderground v.1.15,2013-10-19 21:42:00,
2013-10-19 16:47:00,55.7,38.3,30.04,WSW,248,4.0,6.0,52,0.00,,,0.11,Wunderground v.1.15,2013-10-19 21:47:00,
2013-10-19 16:53:00,55.8,37.9,30.03,SW,219,3.0,4.0,51,0.00,,,0.11,Wunderground v.1.15,2013-10-19 21:53:00,
2013-10-19 16:58:00,55.5,36.6,30.03,SSW,207,5.0,11.0,49,0.00,,,0.11,Wunderground v.1.15,2013-10-19 21:58:00,
2013-10-19 17:04:00,55.8,37.9,30.03,West,263,5.0,5.0,51,0.00,,,0.11,Wunderground v.1.15,2013-10-19 22:04:00,
2013-10-19 17:09:00,56.2,38.3,30.03,WSW,241,4.0,7.0,51,0.00,,,0.11,Wunderground v.1.15,2013-10-19 22:09:00,
2013-10-19 17:15:00,56.1,39.2,30.03,WSW,250,3.0,7.0,53,0.00,,,0.11,Wunderground v.1.15,2013-10-19 22:15:00,
2013-10-19 17:20:00,55.5,38.1,30.03,SSW,211,3.0,3.0,52,0.00,,,0.11,Wunderground v.1.15,2013-10-19 22:20:00,
2013-10-19 17:25:00,55.5,37.7,30.03,WSW,240,4.0,6.0,51,0.00,,,0.11,Wunderground v.1.15,2013-10-19 22:25:00,
2013-10-19 17:31:00,55.4,38.1,30.02,WSW,249,5.0,5.0,52,0.00,,,0.11,Wunderground v.1.15,2013-10-19 22:31:00,
2013-10-19 17:36:00,55.1,37.3,30.02,WSW,256,5.0,8.0,51,0.00,,,0.11,Wunderground v.1.15,2013-10-19 22:36:00,
2013-10-19 17:41:00,55.0,38.2,30.02,SW,226,5.0,5.0,53,0.00,,,0.11,Wunderground v.1.15,2013-10-19 22:41:00,
2013-10-19 17:46:00,54.8,37.5,30.02,WSW,240,5.0,7.0,52,0.00,,,0.11,Wunderground v.1.15,2013-10-19 22:46:00,
2013-10-19 17:52:00,54.6,37.3,30.02,WSW,241,5.0,7.0,52,0.00,,,0.11,Wunderground v.1.15,2013-10-19 22:52:00,
2013-10-19 17:57:00,54.4,37.1,30.02,WSW,255,5.0,7.0,52,0.00,,,0.11,Wunderground v.1.15,2013-10-19 22:57:00,
2013-10-19 18:02:00,54.2,37.4,30.02,WSW,252,4.0,6.0,53,0.00,,,0.11,Wunderground v.1.15,2013-10-19 23:02:00,
2013-10-19 18:08:00,54.1,37.3,30.02,WSW,250,3.0,6.0,53,0.00,,,0.11,Wunderground v.1.15,2013-10-19 23:08:00,
2013-10-19 18:13:00,53.9,38.1,30.02,SW,235,4.0,6.0,55,0.00,,,0.11,Wunderground v.1.15,2013-10-19 23:13:00,
2013-10-19 18:19:00,53.9,37.1,30.02,WSW,238,4.0,6.0,53,0.00,,,0.11,Wunderground v.1.15,2013-10-19 23:19:00,
2013-10-19 18:24:00,53.9,37.1,30.02,WSW,238,5.0,5.0,53,0.00,,,0.11,Wunderground v.1.15,2013-10-19 23:24:00,
2013-10-19 18:30:00,-999.9,-99.9,30.02,North,32767,-999.0,0.0,255,-99.99,,,0.11,Wunderground v.1.15,2013-10-19 23:30:00,
2013-10-19 18:35:00,-999.9,-99.9,30.02,North,32767,-999.0,0.0,255,-99.99,,,0.11,Wunderground v.1.15,2013-10-19 23:35:00,
2013-10-19 18:40:00,-999.9,-99.9,30.02,North,32767,-999.0,0.0,255,-99.99,,,0.11,Wunderground v.1.15,2013-10-19 23:40:00,
2013-10-19 18:45:00,-999.9,-99.9,30.02,North,32767,-999.0,0.0,255,-99.99,,,0.11,Wunderground v.1.15,2013-10-19 23:45:00,
2013-10-19 18:51:00,-999.9,-99.9,30.02,North,32767,-999.0,0.0,255,-99.99,,,0.11,Wunderground v.1.15,2013-10-19 23:51:00,
2013-10-19 18:56:00,-999.9,-99.9,30.02,North,32767,-999.0,0.0,255,-99.99,,,0.11,Wunderground v.1.15,2013-10-19 23:56:00,
2013-10-19 19:01:00,51.2,39.0,30.02,SSW,193,4.0,4.0,63,0.00,,,0.11,Wunderground v.1.15,2013-10-20 00:01:00,
2013-10-19 19:07:00,51.1,38.9,30.02,SSW,195,5.0,7.0,63,0.00,,,0.11,Wunderground v.1.15,2013-10-20 00:07:00,
2013-10-19 19:12:00,50.8,39.1,30.02,SSW,192,5.0,5.0,64,0.00,,,0.11,Wunderground v.1.15,2013-10-20 00:12:00,
2013-10-19 19:17:00,50.7,39.0,30.02,South,186,4.0,7.0,64,0.00,,,0.11,Wunderground v.1.15,2013-10-20 00:17:00,
2013-10-19 19:23:00,50.8,39.1,30.02,South,178,5.0,5.0,64,0.00,,,0.11,Wunderground v.1.15,2013-10-20 00:23:00,
2013-10-19 19:28:00,50.5,39.2,30.02,South,181,5.0,7.0,65,0.00,,,0.11,Wunderground v.1.15,2013-10-20 00:28:00,
2013-10-19 19:33:00,50.3,39.4,30.02,SSW,200,5.0,7.0,66,0.00,,,0.11,Wunderground v.1.15,2013-10-20 00:33:00,
2013-10-19 19:38:00,49.9,39.4,30.02,SSW,203,5.0,7.0,67,0.00,,,0.11,Wunderground v.1.15,2013-10-20 00:38:00,
2013-10-19 19:43:00,49.7,39.2,30.02,South,184,4.0,8.0,67,0.00,,,0.11,Wunderground v.1.15,2013-10-20 00:43:00,
2013-10-19 19:48:00,49.8,39.3,30.02,South,169,5.0,8.0,67,0.00,,,0.11,Wunderground v.1.15,2013-10-20 00:48:00,
2013-10-19 19:54:00,49.5,39.4,30.02,South,190,5.0,6.0,68,0.00,,,0.11,Wunderground v.1.15,2013-10-20 00:54:00,
2013-10-19 19:59:00,49.4,39.3,30.02,South,178,5.0,7.0,68,0.00,,,0.11,Wunderground v.1.15,2013-10-20 00:59:00,
2013-10-19 20:04:00,49.3,39.2,30.02,South,180,5.0,8.0,68,0.00,,,0.11,Wunderground v.1.15,2013-10-20 01:04:00,
2013-10-19 20:10:00,49.0,39.3,30.02,South,171,5.0,5.0,69,0.00,,,0.11,Wunderground v.1.15,2013-10-20 01:10:00,
2013-10-19 20:15:00,48.8,39.4,30.02,SSW,192,5.0,7.0,70,0.00,,,0.11,Wunderground v.1.15,2013-10-20 01:15:00,
2013-10-19 20:20:00,48.7,39.4,30.02,SSW,199,5.0,5.0,70,0.00,,,0.11,Wunderground v.1.15,2013-10-20 01:20:00,
2013-10-19 20:26:00,48.5,39.2,30.02,SSW,201,6.0,7.0,70,0.00,,,0.11,Wunderground v.1.15,2013-10-20 01:26:00,
2013-10-19 20:31:00,48.3,39.3,30.02,SSW,205,6.0,6.0,71,0.00,,,0.11,Wunderground v.1.15,2013-10-20 01:31:00,
2013-10-19 20:37:00,47.9,39.3,30.02,SSW,207,5.0,6.0,72,0.00,,,0.11,Wunderground v.1.15,2013-10-20 01:37:00,
2013-10-19 20:42:00,47.8,39.2,30.02,SW,221,5.0,7.0,72,0.00,,,0.11,Wunderground v.1.15,2013-10-20 01:42:00,
2013-10-19 20:47:00,47.8,39.2,30.02,South,188,2.0,7.0,72,0.00,,,0.11,Wunderground v.1.15,2013-10-20 01:47:00,
2013-10-19 20:53:00,47.7,39.5,30.02,SSW,206,5.0,8.0,73,0.00,,,0.11,Wunderground v.1.15,2013-10-20 01:53:00,
2013-10-19 20:58:00,47.6,39.4,30.02,SSW,197,5.0,8.0,73,0.00,,,0.11,Wunderground v.1.15,2013-10-20 01:58:00,
2013-10-19 21:03:00,47.7,39.5,30.02,SSW,202,5.0,7.0,73,0.00,,,0.11,Wunderground v.1.15,2013-10-20 02:03:00,
2013-10-19 21:08:00,47.8,39.2,30.02,South,188,5.0,7.0,72,0.00,,,0.11,Wunderground v.1.15,2013-10-20 02:08:00,
2013-10-19 21:14:00,47.9,39.3,30.02,SSW,198,5.0,7.0,72,0.00,,,0.11,Wunderground v.1.15,2013-10-20 02:14:00,
2013-10-19 21:20:00,48.0,39.4,30.02,SSW,205,5.0,5.0,72,0.00,,,0.11,Wunderground v.1.15,2013-10-20 02:20:00,
2013-10-19 21:25:00,47.9,39.3,30.02,South,180,5.0,6.0,72,0.00,,,0.11,Wunderground v.1.15,2013-10-20 02:25:00,
2013-10-19 21:31:00,47.7,39.5,30.02,SW,222,5.0,5.0,73,0.00,,,0.11,Wunderground v.1.15,2013-10-20 02:31:00,
2013-10-19 21:36:00,47.7,39.5,30.02,SSW,192,4.0,5.0,73,0.00,,,0.11,Wunderground v.1.15,2013-10-20 02:36:00,
2013-10-19 21:42:00,47.7,39.5,30.02,SSW,198,5.0,7.0,73,0.00,,,0.11,Wunderground v.1.15,2013-10-20 02:42:00,
2013-10-19 21:47:00,47.7,39.1,30.02,South,185,6.0,7.0,72,0.00,,,0.11,Wunderground v.1.15,2013-10-20 02:47:00,
2013-10-19 21:52:00,47.6,39.0,30.02,South,190,6.0,8.0,72,0.00,,,0.11,Wunderground v.1.15,2013-10-20 02:52:00,
2013-10-19 21:58:00,47.6,38.7,30.03,SW,223,6.0,8.0,71,0.00,,,0.11,Wunderground v.1.15,2013-10-20 02:58:00,
2013-10-19 22:03:00,47.5,38.6,30.03,SSW,197,5.0,7.0,71,0.00,,,0.11,Wunderground v.1.15,2013-10-20 03:03:00,
2013-10-19 22:09:00,47.4,38.5,30.03,SSW,194,6.0,7.0,71,0.00,,,0.11,Wunderground v.1.15,2013-10-20 03:09:00,
2013-10-19 22:14:00,47.4,38.5,30.03,SW,223,6.0,9.0,71,0.00,,,0.11,Wunderground v.1.15,2013-10-20 03:14:00,
2013-10-19 22:20:00,47.3,38.4,30.03,SSW,212,6.0,6.0,71,0.00,,,0.11,Wunderground v.1.15,2013-10-20 03:20:00,
2013-10-19 22:25:00,47.3,38.4,30.03,SSW,194,6.0,7.0,71,0.00,,,0.11,Wunderground v.1.15,2013-10-20 03:25:00,
2013-10-19 22:30:00,47.1,38.5,30.03,SSW,198,6.0,7.0,72,0.00,,,0.11,Wunderground v.1.15,2013-10-20 03:30:00,
2013-10-19 22:36:00,47.1,38.5,30.03,SSW,194,7.0,10.0,72,0.00,,,0.11,Wunderground v.1.15,2013-10-20 03:36:00,
2013-10-19 22:41:00,46.9,38.3,30.03,SSW,199,7.0,8.0,72,0.00,,,0.11,Wunderground v.1.15,2013-10-20 03:41:00,
2013-10-19 22:46:00,46.7,38.5,30.03,SSW,209,6.0,8.0,73,0.00,,,0.11,Wunderground v.1.15,2013-10-20 03:46:00,
2013-10-19 22:51:00,46.7,38.5,30.03,SSW,205,6.0,6.0,73,0.00,,,0.11,Wunderground v.1.15,2013-10-20 03:51:00,
2013-10-19 22:57:00,46.5,38.3,30.03,SSW,202,6.0,8.0,73,0.00,,,0.11,Wunderground v.1.15,2013-10-20 03:57:00,
2013-10-19 23:01:00,46.4,38.6,30.03,SW,229,7.0,7.0,74,0.00,,,0.11,Wunderground v.1.15,2013-10-20 04:01:00,
2013-10-19 23:02:00,46.4,38.6,30.03,SW,221,6.0,7.0,74,0.00,,,0.11,Wunderground v.1.15,2013-10-20 04:02:00,
2013-10-19 23:04:00,46.4,38.6,30.03,SSW,211,7.0,7.0,74,0.00,,,0.11,Wunderground v.1.15,2013-10-20 04:04:00,
2013-10-19 23:07:00,46.3,38.5,30.03,SSW,210,6.0,7.0,74,0.00,,,0.11,Wunderground v.1.15,2013-10-20 04:07:00,
2013-10-19 23:10:00,46.3,38.5,30.03,South,186,6.0,6.0,74,0.00,,,0.11,Wunderground v.1.15,2013-10-20 04:10:00,
2013-10-19 23:16:00,46.3,38.5,30.03,SSW,209,5.0,7.0,74,0.00,,,0.11,Wunderground v.1.15,2013-10-20 04:16:00,
2013-10-19 23:21:00,46.5,38.7,30.03,South,188,6.0,7.0,74,0.00,,,0.11,Wunderground v.1.15,2013-10-20 04:21:00,
2013-10-19 23:26:00,46.4,38.6,30.03,SSW,194,6.0,8.0,74,0.00,,,0.11,Wunderground v.1.15,2013-10-20 04:26:00,
2013-10-19 23:32:00,46.4,38.6,30.03,SW,236,6.0,10.0,74,0.00,,,0.11,Wunderground v.1.15,2013-10-20 04:32:00,
2013-10-19 23:37:00,46.3,38.5,30.03,SW,223,7.0,10.0,74,0.00,,,0.11,Wunderground v.1.15,2013-10-20 04:37:00,
2013-10-19 23:42:00,46.2,38.4,30.03,SSW,213,7.0,8.0,74,0.00,,,0.11,Wunderground v.1.15,2013-10-20 04:42:00,
2013-10-19 23:47:00,46.3,38.5,30.03,South,182,7.0,10.0,74,0.00,,,0.11,Wunderground v.1.15,2013-10-20 04:47:00,
2013-10-19 23:53:00,46.2,38.4,30.02,SSW,203,7.0,8.0,74,0.00,,,0.11,Wunderground v.1.15,2013-10-20 04:53:00,
2013-10-19 23:58:00,46.1,38.3,30.02,SSW,206,7.0,10.0,74,0.00,,,0.11,Wunderground v.1.15,2013-10-20 04:58:00,